Location: Arrakis Observatory
(44.1122°N, 95.7153°W)
Time: 06:20:26
(UTC-06:00)

Amateur Radio Satellites - All Passes

Search period start: 26 February 2017 05:50
Search period end: 27 February 2017 05:50
Location: Arrakis Observatory, 44.1122°N, 95.7153°W

Satellite Date Start Highest point End Downlink Frequencies (MHz)
Time Altitude Azimuth
KAITUO 1B 26 Feb 06:08:24 06:11:39 27° 95° (E) 06:14:53 145.475/437.950
STRAND 1 26 Feb 06:12:08 06:16:52 39° 68° (ENE) 06:21:38 437.568
XW-2F 26 Feb 06:14:22 06:17:58 38° 98° (E) 06:21:30 145.980 - 146.000
BEESAT 3 26 Feb 06:18:53 06:22:44 62° 121° (ESE) 06:26:40 437.485
XW-2D 26 Feb 06:19:28 06:23:11 47° 99° (E) 06:26:51 145.860 - 145.880
XW-2B 26 Feb 06:24:31 06:28:17 52° 100° (E) 06:31:59 145.730 - 145.750
XW-2C 26 Feb 06:33:09 06:36:59 69° 101° (ESE) 06:40:46 145.795 - 145.815
NUDT-PHONESAT 26 Feb 06:41:54 06:45:41 71° 102° (ESE) 06:49:24 437.300
SO-50 26 Feb 06:47:43 06:52:15 75° 54° (NE) 06:56:43 436.795
LilacSat-2 26 Feb 06:50:59 06:54:50 69° 285° (WNW) 06:58:37 437.200
BEESAT 2 26 Feb 06:59:03 07:02:58 69° 122° (ESE) 07:06:58 435.950
HO-68 26 Feb 07:10:47 07:16:56 30° 94° (E) 07:23:02 435.675
CUTE-I 26 Feb 07:25:31 07:30:46 53° 290° (WNW) 07:35:58 437.470
DOVE 4 26 Feb 07:26:10 07:30:26 35° 290° (WNW) 07:34:54 437.250
AO-7 26 Feb 07:28:16 07:30:17 11° 324° (NW) 07:32:17 .
O/OREOS (USA 219) 26 Feb 07:30:45 07:34:30 24° 55° (NE) 07:38:16 437.305
CUTE 1.7 + AOD 2 26 Feb 07:37:13 07:41:11 39° 98° (E) 07:45:08 437.475
ISS 26 Feb 07:40:10 07:43:09 32° 139° (SE) 07:46:08 437.550
XW-2A 26 Feb 07:40:25 07:43:53 68° 101° (E) 07:47:19 145.665 - 145.685
KAITUO 1B 26 Feb 07:42:36 07:45:34 22° 292° (WNW) 07:48:31 145.475/437.950
XW-2F 26 Feb 07:49:19 07:51:49 17° 295° (WNW) 07:54:18 145.980 - 146.000
PRISM 26 Feb 07:51:37 07:54:07 16° 63° (ENE) 07:56:37 437.425
STRAND 1 26 Feb 07:51:45 07:56:07 28° 265° (W) 08:00:32 437.568
XW-2D 26 Feb 07:54:54 07:56:59 14° 296° (WNW) 07:59:05 145.860 - 145.880
BEESAT 3 26 Feb 07:58:01 08:00:44 18° 320° (NW) 08:03:28 437.485
XW-2B 26 Feb 08:00:12 08:02:01 13° 297° (WNW) 08:03:51 145.730 - 145.750
Tancredo 1 26 Feb 08:03:16 08:06:26 54° 144° (SE) 08:09:38 437.200
CUBEBUG 2 26 Feb 08:05:01 08:09:30 39° 97° (E) 08:13:54 437.445
XW-2C 26 Feb 08:09:50 08:10:37 11° 299° (WNW) 08:11:25 145.795 - 145.815
AO-73 26 Feb 08:12:15 08:15:02 16° 90° (E) 08:17:46 145.935
Oscar 11 26 Feb 08:17:55 08:20:23 15° 90° (E) 08:22:51 .
AAUSAT CUBESAT 2 26 Feb 08:19:09 08:22:59 37° 97° (E) 08:26:48 437.432
UNISAT 6 26 Feb 08:19:18 08:21:53 15° 61° (ENE) 08:24:31 437.425
TIGRISAT 26 Feb 08:19:32 08:21:55 14° 60° (ENE) 08:24:20 435.000
SO-50 26 Feb 08:29:58 08:32:05 13° 251° (WSW) 08:34:12 436.795
SEEDS 26 Feb 08:32:35 08:36:45 75° 285° (WNW) 08:40:54 437.485
BEESAT 2 26 Feb 08:38:33 08:41:11 17° 321° (NW) 08:43:51 435.950
UWE-3 26 Feb 08:40:20 08:44:56 56° 99° (E) 08:49:28 435.000/436.395/437.385
FO-29 26 Feb 08:55:39 09:01:46 29° 59° (ENE) 09:08:12 435.910
YUBILEINY 26 Feb 08:57:00 09:02:43 19° 76° (ENE) 09:08:24 435.215
HO-68 26 Feb 08:58:01 09:04:59 56° 293° (WNW) 09:11:55 435.675
ZACube-1 26 Feb 08:59:12 09:03:41 52° 99° (E) 09:08:03 437.345
O/OREOS (USA 219) 26 Feb 09:09:46 09:14:03 40° 253° (WSW) 09:18:19 437.305
CUTE 1.7 + AOD 2 26 Feb 09:13:42 09:16:45 20° 295° (WNW) 09:19:48 437.475
ISS 26 Feb 09:16:23 09:19:33 42° 337° (NNW) 09:22:44 437.550
PRISM 26 Feb 09:25:05 09:29:01 48° 260° (W) 09:32:59 437.425
Tancredo 1 26 Feb 09:39:55 09:42:52 31° 342° (NNW) 09:45:49 437.200
CUBEBUG 2 26 Feb 09:42:01 09:45:54 25° 294° (WNW) 09:49:45 437.445
DELFI C3 26 Feb 09:42:56 09:46:36 37° 98° (E) 09:50:15 145.870
AO-73 26 Feb 09:47:09 09:51:36 54° 287° (WNW) 09:55:58 145.935
Oscar 11 26 Feb 09:52:37 09:56:51 53° 287° (WNW) 10:01:02 .
TIGRISAT 26 Feb 09:53:29 09:57:59 71° 259° (WSW) 10:02:38 435.000
UNISAT 6 26 Feb 09:53:32 09:58:02 66° 259° (W) 10:02:39 437.425
AAUSAT CUBESAT 2 26 Feb 09:55:12 09:58:13 20° 294° (WNW) 10:01:12 437.432
AIST 2D 26 Feb 10:14:58 10:17:59 26° 70° (ENE) 10:21:01 435.315
UWE-3 26 Feb 10:17:50 10:20:56 18° 297° (WNW) 10:24:01 435.000/436.395/437.385
DUCHIFAT 1 26 Feb 10:28:50 10:32:11 24° 66° (ENE) 10:35:35 145.980
ZACube-1 26 Feb 10:36:28 10:39:32 18° 297° (WNW) 10:42:35 437.345
FO-29 26 Feb 10:38:57 10:46:06 68° 259° (W) 10:53:55 435.910
EO-79 26 Feb 10:40:18 10:44:10 36° 70° (ENE) 10:48:05 145.935-145.965
HO-68 26 Feb 10:48:27 10:51:12 13° 314° (NW) 10:53:57 435.675
YUBILEINY 26 Feb 10:49:23 10:58:14 90° 93° (E) 11:07:05 435.215
ISS 26 Feb 10:53:58 10:56:36 22° 357° (N) 10:59:14 437.550
NANOSAT C BR1 26 Feb 10:56:21 11:00:25 49° 72° (ENE) 11:04:32 145.865
POLYITAN 1 26 Feb 10:57:50 11:01:59 56° 73° (ENE) 11:06:11 437.675
QB50P2 26 Feb 11:00:48 11:05:00 66° 74° (ENE) 11:09:15 145.880/145.840
Tancredo 1 26 Feb 11:17:14 11:19:48 21° 2° (N) 11:22:22 437.200
DELFI C3 26 Feb 11:18:26 11:21:08 18° 295° (WNW) 11:23:51 145.870
BUGSAT 1 26 Feb 11:21:09 11:24:41 29° 68° (ENE) 11:28:16 437.445
LO-87 26 Feb 11:40:19 11:43:54 67° 285° (WNW) 11:47:29 145.935 - 145.965
AIST 2D 26 Feb 11:48:31 11:51:12 20° 266° (W) 11:53:56 435.315
Oscar 19 26 Feb 11:57:33 12:01:46 26° 64° (ENE) 12:06:00 437.125/150
ESTCUBE 1 26 Feb 12:01:08 12:05:39 86° 103° (ESE) 12:10:07 437.505/2401.250
DUCHIFAT 1 26 Feb 12:03:54 12:07:42 33° 263° (W) 12:11:33 145.980
50 SAT 26 Feb 12:04:52 12:07:21 18° 94° (E) 12:09:48 437.505
DX 1 26 Feb 12:10:28 12:13:09 16° 92° (E) 12:15:50 434.975-435.025
EO-79 26 Feb 12:16:49 12:20:02 21° 267° (W) 12:23:17 145.935-145.965
UKube-1 26 Feb 12:20:29 12:22:52 14° 91° (E) 12:25:14 .
SPROUT 26 Feb 12:21:02 12:25:05 38° 98° (E) 12:29:06 437.525
VELOX 1 26 Feb 12:21:33 12:25:49 46° 99° (E) 12:30:05 145.980
FO-29 26 Feb 12:29:37 12:32:36 13° 279° (W) 12:35:41 435.910
AO-85 26 Feb 12:30:24 12:34:12 47° 51° (NE) 12:38:01 145.980
ISS 26 Feb 12:30:46 12:33:45 30° 17° (NNE) 12:36:43 437.550
NANOSAT C BR1 26 Feb 12:33:54 12:36:25 15° 269° (W) 12:38:57 145.865
POLYITAN 1 26 Feb 12:35:56 12:38:08 14° 270° (W) 12:40:20 437.675
QB50P2 26 Feb 12:39:40 12:41:14 12° 271° (W) 12:42:49 145.880/145.840
YUBILEINY 26 Feb 12:49:58 12:56:19 21° 300° (WNW) 13:02:42 435.215
AO-7 26 Feb 12:50:39 12:56:09 20° 47° (NE) 13:01:38 .
Gurwin Techsat 1B 26 Feb 12:50:56 12:55:57 45° 69° (ENE) 13:01:00 435.225
Tancredo 1 26 Feb 12:53:36 12:56:41 39° 22° (NNE) 12:59:44 437.200
BUGSAT 1 26 Feb 12:56:43 13:00:03 24° 265° (W) 13:03:26 437.445
BEESAT 3 26 Feb 12:58:52 12:59:49 11° 32° (NNE) 13:00:47 437.485
Oscar 19 26 Feb 13:36:01 13:40:53 42° 262° (W) 13:45:46 437.125/150
50 SAT 26 Feb 13:37:30 13:40:30 27° 290° (WNW) 13:43:28 437.505
BEESAT 2 26 Feb 13:39:22 13:40:50 12° 33° (NNE) 13:42:18 435.950
ESTCUBE 1 26 Feb 13:40:19 13:41:45 11° 301° (WNW) 13:43:12 437.505/2401.250
DX 1 26 Feb 13:45:24 13:49:38 51° 288° (WNW) 13:53:51 434.975-435.025
UKube-1 26 Feb 13:55:00 13:59:14 55° 288° (WNW) 14:03:27 .
SPROUT 26 Feb 13:57:29 14:00:46 21° 295° (WNW) 14:04:01 437.525
VELOX 1 26 Feb 13:58:50 14:01:57 19° 296° (WNW) 14:05:03 145.980
ISS 26 Feb 14:07:08 14:10:24 60° 216° (SW) 14:13:38 437.550
AO-85 26 Feb 14:11:44 14:14:14 16° 248° (WSW) 14:16:45 145.980
ITAMSAT 1 26 Feb 14:12:08 14:17:06 47° 69° (ENE) 14:22:06 435.822/435.867
ITUPSAT 1 26 Feb 14:27:04 14:30:54 23° 94° (E) 14:34:42 437.325
Tancredo 1 26 Feb 14:29:57 14:32:56 35° 220° (SW) 14:35:53 437.200
Gurwin Techsat 1B 26 Feb 14:31:43 14:36:05 25° 266° (W) 14:40:26 435.225
BEESAT 26 Feb 14:32:38 14:36:42 27° 95° (E) 14:40:44 436.000
BEESAT 3 26 Feb 14:34:18 14:38:17 58° 53° (NE) 14:42:14 437.485
AO-7 26 Feb 14:39:16 14:47:35 75° 68° (ENE) 14:55:55 .
MOZHAYETS 4 26 Feb 14:43:44 14:45:50 13° 89° (E) 14:47:56
BEESAT 2 26 Feb 15:15:21 15:19:25 65° 54° (NE) 15:23:25 435.950
ITAMSAT 1 26 Feb 15:52:40 15:56:47 24° 267° (W) 16:00:57 435.822/435.867
ITUPSAT 1 26 Feb 16:04:22 16:08:53 41° 291° (WNW) 16:13:20 437.325
PCSat 26 Feb 16:06:49 16:12:09 62° 116° (ESE) 16:17:30 145.827
BEESAT 26 Feb 16:10:10 16:14:31 35° 292° (WNW) 16:18:50 436.000
BEESAT 3 26 Feb 16:13:15 16:15:26 14° 250° (WSW) 16:17:36 437.485
MOZHAYETS 4 26 Feb 16:18:53 16:23:29 68° 286° (WNW) 16:28:01
RS-15 26 Feb 16:25:48 16:36:21 39° 106° (ESE) 16:47:13 29.354- 29.394
AO-7 26 Feb 16:34:26 16:41:04 26° 267° (W) 16:47:45 .
KKS-1 26 Feb 16:39:54 16:44:17 51° 100° (E) 16:48:38 437.445
KAITUO 1B 26 Feb 16:50:30 16:53:03 17° 66° (ENE) 16:55:37 145.475/437.950
BEESAT 2 26 Feb 16:54:47 16:56:40 13° 251° (WSW) 16:58:32 435.950
DOVE 4 26 Feb 16:56:14 16:59:47 28° 68° (ENE) 17:03:23 437.250
XW-2F 26 Feb 16:56:56 17:00:03 24° 68° (ENE) 17:03:10 145.980 - 146.000
NO-84 26 Feb 16:59:09 17:02:19 62° 138° (SE) 17:05:47 435.350 FM
XW-2D 26 Feb 17:02:11 17:05:31 28° 69° (ENE) 17:08:52 145.860 - 145.880
XW-2B 26 Feb 17:07:09 17:10:35 31° 70° (ENE) 17:14:02 145.730 - 145.750
CUTE-I 26 Feb 17:09:16 17:14:13 41° 68° (ENE) 17:19:14 437.470
STARS 26 Feb 17:10:07 17:14:26 48° 100° (E) 17:18:43 437.465
M-CUBED/EXP-1 PRIME 26 Feb 17:10:21 17:13:08 19° 100° (E) 17:16:02 437.505
XW-2C 26 Feb 17:15:38 17:19:15 39° 72° (ENE) 17:22:53 145.795 - 145.815
CUBESAT XI-V 26 Feb 17:21:50 17:26:28 89° 111° (ESE) 17:31:03 437.345
NUDT-PHONESAT 26 Feb 17:22:35 17:26:05 38° 72° (ENE) 17:29:38 437.300
LilacSat-2 26 Feb 17:33:44 17:37:35 69° 75° (ENE) 17:41:28 437.200
HO-68 26 Feb 17:41:33 17:47:23 28° 58° (ENE) 17:53:13 435.675
PCSat 26 Feb 17:51:31 17:55:57 25° 316° (NW) 18:00:26 145.827
XW-2A 26 Feb 18:13:26 18:16:21 27° 70° (ENE) 18:19:19 145.665 - 145.685
KKS-1 26 Feb 18:17:26 18:20:28 18° 297° (WNW) 18:23:30 437.445
KAITUO 1B 26 Feb 18:23:16 18:26:49 37° 262° (W) 18:30:24 145.475/437.950
STRAND 1 26 Feb 18:23:29 18:24:55 11° 87° (E) 18:26:22 437.568
XW-2F 26 Feb 18:30:50 18:34:06 26° 265° (W) 18:37:24 145.980 - 146.000
CUTE 1.7 + AOD 2 26 Feb 18:31:03 18:34:55 34° 70° (ENE) 18:38:48 437.475
DOVE 4 26 Feb 18:34:03 18:37:29 25° 266° (W) 18:40:58 437.250
RS-15 26 Feb 18:36:04 18:48:05 71° 310° (NW) 19:00:31 29.354- 29.394
XW-2D 26 Feb 18:36:41 18:39:43 22° 266° (W) 18:42:46 145.860 - 145.880
NO-84 26 Feb 18:37:23 18:40:16 25° 339° (NNW) 18:43:23 435.350 FM
XW-2B 26 Feb 18:41:58 18:44:50 20° 267° (W) 18:47:44 145.730 - 145.750
M-CUBED/EXP-1 PRIME 26 Feb 18:44:09 18:47:40 38° 294° (WNW) 18:51:26 437.505
STARS 26 Feb 18:47:21 18:50:25 19° 297° (WNW) 18:53:30 437.465
CUTE-I 26 Feb 18:49:50 18:54:22 28° 265° (W) 18:58:58 437.470
XW-2C 26 Feb 18:51:13 18:53:38 16° 268° (W) 18:56:03 145.795 - 145.815
NUDT-PHONESAT 26 Feb 18:57:52 19:00:11 16° 268° (W) 19:02:33 437.300
CUBESAT XI-V 26 Feb 19:01:39 19:03:07 11° 301° (WNW) 19:04:35 437.345
CUBEBUG 2 26 Feb 19:04:18 19:08:24 37° 69° (ENE) 19:12:39 437.445
AO-73 26 Feb 19:09:18 19:12:03 16° 62° (ENE) 19:14:48 145.935
AAUSAT CUBESAT 2 26 Feb 19:10:35 19:14:13 30° 69° (ENE) 19:17:52 437.432
Oscar 11 26 Feb 19:14:25 19:16:56 15° 62° (ENE) 19:19:25 .
SEEDS 26 Feb 19:25:05 19:29:19 88° 86° (E) 19:33:34 437.485
HO-68 26 Feb 19:27:28 19:34:35 66° 257° (WSW) 19:41:44 435.675
UWE-3 26 Feb 19:38:14 19:42:35 52° 72° (ENE) 19:47:05 435.000/436.395/437.385
XW-2A 26 Feb 19:46:48 19:49:10 18° 267° (W) 19:51:34 145.665 - 145.685
ZACube-1 26 Feb 19:55:54 20:00:12 48° 72° (ENE) 20:04:36 437.345
STRAND 1 26 Feb 19:59:38 20:04:49 88° 101° (ESE) 20:09:58 437.568
CUTE 1.7 + AOD 2 26 Feb 20:07:26 20:10:49 22° 266° (W) 20:14:13 437.475
NO-84 26 Feb 20:16:40 20:19:00 16° 1° (N) 20:21:27 435.350 FM
DELFI C3 26 Feb 20:29:55 20:33:16 27° 69° (ENE) 20:36:37 145.870
CUBEBUG 2 26 Feb 20:41:31 20:45:07 24° 267° (W) 20:48:50 437.445
AO-73 26 Feb 20:43:21 20:47:46 60° 260° (W) 20:52:18 145.935
AAUSAT CUBESAT 2 26 Feb 20:46:18 20:49:42 24° 266° (W) 20:53:06 437.432
Oscar 11 26 Feb 20:48:17 20:52:35 59° 260° (W) 20:56:54 .
RS-15 26 Feb 20:52:41 21:03:20 33° 340° (NNW) 21:14:08 29.354- 29.394
YUBILEINY 26 Feb 20:57:57 21:06:23 49° 74° (ENE) 21:14:42 435.215
SO-50 26 Feb 21:04:45 21:07:43 17° 110° (ESE) 21:10:39 436.795
PRISM 26 Feb 21:05:26 21:08:24 19° 94° (E) 21:11:20 437.425
UWE-3 26 Feb 21:16:28 21:19:22 17° 270° (W) 21:22:21 435.000/436.395/437.385
HO-68 26 Feb 21:22:03 21:23:38 11° 276° (W) 21:25:13 435.675
ESTCUBE 1 26 Feb 21:28:43 21:30:06 11° 59° (ENE) 21:31:29 437.505/2401.250
ZACube-1 26 Feb 21:33:40 21:36:45 18° 269° (W) 21:39:52 437.345
STRAND 1 26 Feb 21:40:42 21:43:15 14° 303° (WNW) 21:45:48 437.568
TIGRISAT 26 Feb 21:44:02 21:47:46 23° 93° (E) 21:51:26 435.000
UNISAT 6 26 Feb 21:44:09 21:48:00 24° 93° (E) 21:51:47 437.425
O/OREOS (USA 219) 26 Feb 21:45:28 21:48:35 19° 101° (E) 21:51:44 437.305
FO-29 26 Feb 21:48:48 21:54:13 21° 86° (E) 21:59:16 435.910
NO-84 26 Feb 21:54:27 21:57:44 25° 22° (NNE) 22:01:12 435.350 FM
DELFI C3 26 Feb 22:04:45 22:08:01 24° 265° (W) 22:11:18 145.870
LO-87 26 Feb 22:17:38 22:21:05 57° 75° (ENE) 22:24:35 145.935 - 145.965
PRISM 26 Feb 22:40:02 22:43:49 37° 290° (WNW) 22:47:34 437.425
50 SAT 26 Feb 22:42:23 22:42:59 10° 63° (ENE) 22:43:34 437.505
SO-50 26 Feb 22:43:03 22:47:42 64° 307° (NW) 22:52:18 436.795
YUBILEINY 26 Feb 22:55:07 23:02:58 39° 274° (W) 23:10:47 435.215
ESTCUBE 1 26 Feb 23:01:41 23:06:13 88° 264° (W) 23:10:44 437.505/2401.250
DX 1 26 Feb 23:07:32 23:10:25 18° 63° (ENE) 23:13:19 434.975-435.025
RS-15 26 Feb 23:10:19 23:20:52 30° 15° (NNE) 23:31:14 29.354- 29.394
PCSat 26 Feb 23:10:59 23:14:08 15° 35° (NE) 23:17:18 145.827
AIST 2D 26 Feb 23:11:37 23:14:38 25° 95° (E) 23:17:38 435.315
SPROUT 26 Feb 23:15:43 23:19:34 35° 70° (ENE) 23:23:28 437.525
UKube-1 26 Feb 23:16:32 23:19:09 16° 62° (ENE) 23:21:47 .
VELOX 1 26 Feb 23:19:59 23:24:12 49° 71° (ENE) 23:28:27 145.980
TIGRISAT 26 Feb 23:20:10 23:24:34 40° 290° (WNW) 23:28:55 435.000
UNISAT 6 26 Feb 23:20:27 23:24:48 38° 291° (WNW) 23:29:04 437.425
O/OREOS (USA 219) 26 Feb 23:23:20 23:27:38 45° 299° (WNW) 23:31:59 437.305
NO-84 26 Feb 23:31:45 23:35:49 87° 221° (SW) 23:40:10 435.350 FM
FO-29 26 Feb 23:32:27 23:40:09 81° 287° (WNW) 23:47:04 435.910
DUCHIFAT 1 26 Feb 23:46:00 23:49:53 33° 97° (E) 23:53:44 145.980
EO-79 26 Feb 23:58:36 00:02:50 55° 100° (E) 00:07:01 145.935-145.965
50 SAT 27 Feb 00:12:11 00:15:37 57° 260° (W) 00:19:05 437.505
NANOSAT C BR1 27 Feb 00:14:27 00:18:46 76° 104° (ESE) 00:23:00 145.865
POLYITAN 1 27 Feb 00:16:38 00:20:58 87° 105° (ESE) 00:25:15 437.675
QB50P2 27 Feb 00:19:42 00:24:01 81° 284° (WNW) 00:28:18 145.880/145.840
SO-50 27 Feb 00:26:41 00:29:03 14° 328° (NNW) 00:31:25 436.795
BUGSAT 1 27 Feb 00:35:55 00:39:57 41° 99° (E) 00:43:58 437.445
DX 1 27 Feb 00:42:04 00:46:15 48° 260° (W) 00:50:28 434.975-435.025
AIST 2D 27 Feb 00:45:01 00:47:44 21° 292° (WNW) 00:50:27 435.315
UKube-1 27 Feb 00:50:33 00:54:45 54° 259° (W) 00:59:00 .
SPROUT 27 Feb 00:52:15 00:55:34 22° 266° (W) 00:58:56 437.525
PCSat 27 Feb 00:53:09 00:58:36 68° 56° (ENE) 01:04:00 145.827
VELOX 1 27 Feb 00:58:08 01:00:56 17° 268° (W) 01:03:45 145.980
Gurwin Techsat 1B 27 Feb 01:06:50 01:09:54 15° 89° (E) 01:12:56 435.225
NO-84 27 Feb 01:10:47 01:13:05 14° 235° (SW) 01:15:27 435.350 FM
FO-29 27 Feb 01:18:55 01:23:53 19° 308° (NW) 01:28:39 435.910
DUCHIFAT 1 27 Feb 01:21:59 01:25:24 24° 294° (WNW) 01:28:48 145.980
RS-15 27 Feb 01:24:20 01:36:38 61° 46° (NE) 01:48:25 29.354- 29.394
ITUPSAT 1 27 Feb 01:34:58 01:39:15 33° 67° (ENE) 01:43:32 437.325
EO-79 27 Feb 01:35:34 01:38:09 16° 297° (WNW) 01:40:43 145.935-145.965
BEESAT 27 Feb 01:40:12 01:44:35 37° 68° (ENE) 01:49:00 436.000
Oscar 19 27 Feb 01:45:35 01:50:40 60° 102° (ESE) 01:55:43 437.125/150
MOZHAYETS 4 27 Feb 01:46:51 01:49:43 16° 62° (ENE) 01:52:35
NANOSAT C BR1 27 Feb 01:52:15 01:53:51 12° 300° (WNW) 01:55:27 145.865
POLYITAN 1 27 Feb 01:55:09 01:56:03 11° 301° (WNW) 01:56:58 437.675
BUGSAT 1 27 Feb 02:11:56 02:15:02 20° 295° (WNW) 02:18:07 437.445
ITAMSAT 1 27 Feb 02:24:55 02:27:42 14° 89° (E) 02:30:28 435.822/435.867
PCSat 27 Feb 02:37:44 02:41:25 19° 255° (WSW) 02:45:05 145.827
AO-7 27 Feb 02:40:31 02:46:26 21° 91° (E) 02:52:17 .
Gurwin Techsat 1B 27 Feb 02:45:03 02:50:23 73° 287° (WNW) 02:55:41 435.225
AO-85 27 Feb 02:49:13 02:50:19 11° 109° (ESE) 02:51:24 145.980
CUBESAT XI-V 27 Feb 02:52:06 02:54:07 13° 60° (ENE) 02:56:08 437.345
ITUPSAT 1 27 Feb 03:12:52 03:17:03 29° 264° (W) 03:21:17 437.325
BEESAT 27 Feb 03:18:28 03:22:26 26° 265° (W) 03:26:26 436.000
MOZHAYETS 4 27 Feb 03:21:46 03:26:22 61° 259° (W) 03:31:00
Oscar 19 27 Feb 03:25:55 03:29:32 20° 299° (WNW) 03:33:07 437.125/150
RS-15 27 Feb 03:37:27 03:48:51 48° 251° (WSW) 03:59:48 29.354- 29.394
KKS-1 27 Feb 03:39:06 03:43:25 56° 72° (ENE) 03:47:47 437.445
M-CUBED/EXP-1 PRIME 27 Feb 03:58:17 04:00:59 25° 64° (ENE) 04:03:44 437.505
ITAMSAT 1 27 Feb 04:02:29 04:07:44 76° 287° (WNW) 04:12:57 435.822/435.867
STARS 27 Feb 04:07:52 04:12:06 51° 71° (ENE) 04:16:22 437.465
AO-85 27 Feb 04:25:39 04:30:11 87° 306° (NW) 04:34:24 145.980
CUBESAT XI-V 27 Feb 04:26:10 04:30:50 81° 257° (WSW) 04:35:31 437.345
Gurwin Techsat 1B 27 Feb 04:27:43 04:29:24 11° 305° (NW) 04:31:05 435.225
AO-7 27 Feb 04:31:49 04:40:10 86° 290° (WNW) 04:48:28 .
KKS-1 27 Feb 05:17:49 05:20:20 15° 269° (W) 05:22:53 437.445
CUTE-I 27 Feb 05:26:10 05:28:55 14° 89° (E) 05:31:41 437.470
SO-50 27 Feb 05:33:03 05:36:51 26° 42° (NE) 05:40:38 436.795
M-CUBED/EXP-1 PRIME 27 Feb 05:33:12 05:35:31 18° 260° (W) 05:37:50 437.505
STRAND 1 27 Feb 05:39:35 05:43:20 21° 62° (ENE) 05:47:06 437.568
ITAMSAT 1 27 Feb 05:44:30 05:46:18 12° 305° (NW) 05:48:07 435.822/435.867
